星链-1027 (STARLINK-1027 )

导读

STARLINK-1027(星链-1027)是美国太空探索技术公司(SpaceX)研发运营的Starlink V1.0版本卫星,隶属于星链低轨互联网星座项目,于2019年11月11日发射升空。该卫星运行在近地轨道,轨道倾角53.019°,近地点约145公里,远地点约150公里,旨在为全球提供高速低延迟卫星互联网服务,已于2025年4月再入大气层陨落。

Basic Information
目录编号:
44732
目录名称:
STARLINK-1027
国际标识:
2019-074V
轨道中心:
EARTH
卫星名称:
星链-1027
卫星全名:
星链-1027 (STARLINK-1027 )
卫星状态:
已陨落 最后检测时间 2025-04-27
发射日期:
2019-11-11 UTC
国别 :
美国 (US)
星等 :
--
This satellite is enrolled in the Space Conjunction Data Service (SCDS) and the current flight risk assessment level is: No High Risk
Orbit Information
数据来源 国际轨道数据
星历时间: 2025-04-27T12:35:57+0800
轨道信息已过期503天
半长轴: 6525.431km
偏心率: 0.0003787
轨道倾角: 53.019°
近地点辐角 219.266°
升交点赤经 130.603°
平近点角 190.071°
近地点: 144.824km
远地点: 149.768km
周期: 87.433分钟
每日圈数: 16.469826
Detailed Information
固有亮度:
5
最大亮度:
2.5
卫星平台:
Starlink V1.0
覆盖范围:
全球
运营商:
太空探索技术公司
运营商所在国:
美国
制造商(研发单位):
太空探索技术公司
制造商所在国:
美国
使用方式:
暂无
Satellite Introduction
星链(Starlink)计划是由太空探索技术公司(SpaceX)提出的一个巨型低轨卫星互联网星座项目,计划在2019年至2024年间在太空搭建由约1.2万颗卫星组成的“星链”网络,其中1584颗将部署在地球上空550千米处的近地轨道,并从2020年开始工作。该卫星仍在工作。
Miss Distance Evolution Trend with All Objects
Collision Probability Evolution Trend with All Objects